| time (UTC) | temp F | wind direction | speed MPH | gust MPH | rain 1hr in | rain 24hr in | rain mn in | humidity % | barometer mb |
| 20260508050042 | 46 | 100 | 2.0 | 5.0 | 0.00 | 0.00 | 0.00 | 76 | 1009.3 |
| 20260508045527 | 46 | 105 | 2.0 | 4.0 | 0.00 | 0.00 | 0.00 | 76 | 1009.4 |
| 20260508045057 | 46 | 101 | 3.0 | 5.0 | 0.00 | 0.00 | 0.00 | 76 | 1009.4 |
| 20260508044526 | 46 | 115 | 4.0 | 5.0 | 0.00 | 0.00 | 0.00 | 76 | 1009.3 |
| 20260508044041 | 46 | 105 | 3.0 | 6.0 | 0.00 | 0.00 | 0.00 | 76 | 1009.4 |
| 20260508043525 | 46 | 110 | 4.0 | 6.0 | 0.00 | 0.00 | 0.00 | 76 | 1009.4 |
| 20260508043034 | 46 | 108 | 4.0 | 7.0 | 0.00 | 0.00 | 0.00 | 76 | 1009.4 |
| 20260508042544 | 46 | 110 | 5.0 | 7.0 | 0.00 | 0.00 | 0.00 | 76 | 1009.4 |
| 20260508042032 | 46 | 89 | 5.0 | 7.0 | 0.00 | 0.00 | 0.00 | 75 | 1009.3 |
| 20260508041539 | 46 | 96 | 4.0 | 9.0 | 0.00 | 0.00 | 0.00 | 75 | 1009.4 |
| 20260508041032 | 46 | 113 | 7.0 | 9.0 | 0.00 | 0.00 | 0.00 | 75 | 1009.3 |
| 20260508040539 | 46 | 117 | 5.0 | 7.0 | 0.00 | 0.00 | 0.00 | 73 | 1009.4 |
| 20260508040044 | 46 | 115 | 4.0 | 5.0 | 0.00 | 0.00 | 0.00 | 72 | 1009.4 |
| 20260508035556 | 46 | 114 | 4.0 | 5.0 | 0.00 | 0.00 | 0.00 | 72 | 1009.4 |
| 20260508035028 | 46 | 129 | 3.0 | 4.0 | 0.00 | 0.00 | 0.00 | 72 | 1009.4 |
| 20260508034535 | 46 | 117 | 2.0 | 3.0 | 0.00 | 0.00 | 0.00 | 72 | 1009.3 |
| 20260508034051 | 46 | 35 | 1.0 | 2.0 | 0.00 | 0.00 | 0.00 | 71 | 1009.4 |
| 20260508033540 | 47 | 35 | 1.0 | 3.0 | 0.00 | 0.00 | 0.00 | 71 | 1009.2 |
| 20260508033054 | 47 | 53 | 2.0 | 3.0 | 0.00 | 0.00 | 0.00 | 72 | 1009.2 |
| 20260508032606 | 47 | 46 | 1.0 | 3.0 | 0.00 | 0.00 | 0.00 | 72 | 1009.2 |
| 20260508032024 | 47 | 23 | 2.0 | 4.0 | 0.00 | 0.00 | 0.00 | 72 | 1009.2 |
| 20260508031546 | 47 | 28 | 2.0 | 6.0 | 0.00 | 0.00 | 0.00 | 72 | 1009.3 |
| 20260508031039 | 47 | 60 | 4.0 | 6.0 | 0.00 | 0.00 | 0.00 | 73 | 1009.3 |
| 20260508030528 | 47 | 89 | 4.0 | 9.0 | 0.00 | 0.00 | 0.00 | 73 | 1009.3 |
| 20260508030042 | 47 | 89 | 6.0 | 10.0 | 0.00 | 0.00 | 0.00 | 73 | 1009.4 |
| 20260508025527 | 47 | 79 | 9.0 | 12.0 | 0.00 | 0.00 | 0.00 | 73 | 1009.4 |
| 20260508025103 | 47 | 110 | 9.0 | 12.0 | 0.00 | 0.00 | 0.00 | 72 | 1009.3 |
| 20260508024530 | 48 | 107 | 7.0 | 10.0 | 0.00 | 0.00 | 0.00 | 70 | 1009.4 |
| 20260508024036 | 48 | 56 | 6.0 | 10.0 | 0.00 | 0.00 | 0.00 | 68 | 1009.4 |
| 20260508023550 | 48 | 112 | 6.0 | 9.0 | 0.00 | 0.00 | 0.00 | 64 | 1009.2 |
| 20260508023028 | 48 | 108 | 5.0 | 7.0 | 0.00 | 0.00 | 0.00 | 62 | 1009.1 |
| 20260508022535 | 48 | 96 | 5.0 | 7.0 | 0.00 | 0.00 | 0.00 | 61 | 1009.0 |
| 20260508022027 | 48 | 103 | 3.0 | 4.0 | 0.00 | 0.00 | 0.00 | 59 | 1009.1 |
| 20260508021550 | 48 | 28 | 1.0 | 2.0 | 0.00 | 0.00 | 0.00 | 59 | 1009.1 |
| 20260508021039 | 48 | 331 | 1.0 | 2.0 | 0.00 | 0.00 | 0.00 | 60 | 1009.1 |
| 20260508020527 | 48 | 331 | 1.0 | 3.0 | 0.00 | 0.00 | 0.00 | 60 | 1009.1 |
| 20260508020042 | 48 | 1 | 1.0 | 3.0 | 0.00 | 0.00 | 0.00 | 60 | 1009.1 |
| 20260508015528 | 48 | 314 | 1.0 | 2.0 | 0.00 | 0.00 | 0.00 | 60 | 1009.1 |
| 20260508015103 | 48 | 1 | 1.0 | 2.0 | 0.00 | 0.00 | 0.00 | 59 | 1009.1 |
| 20260508014554 | 48 | 335 | 1.0 | 3.0 | 0.00 | 0.00 | 0.00 | 59 | 1009.0 |
| 20260508014027 | 48 | 349 | 2.0 | 3.0 | 0.00 | 0.00 | 0.00 | 60 | 1009.0 |
| 20260508013537 | 48 | 350 | 1.0 | 3.0 | 0.00 | 0.00 | 0.00 | 58 | 1008.9 |
| 20260508013054 | 48 | 1 | 1.0 | 2.0 | 0.00 | 0.00 | 0.00 | 58 | 1008.8 |
| 20260508012521 | 48 | 324 | 1.0 | 3.0 | 0.00 | 0.00 | 0.00 | 59 | 1008.9 |
| 20260508012031 | 48 | 327 | 1.0 | 3.0 | 0.00 | 0.00 | 0.00 | 59 | 1008.8 |
| 20260508011539 | 49 | 340 | 2.0 | 4.0 | 0.00 | 0.00 | 0.00 | 58 | 1008.8 |
| 20260508011032 | 49 | 89 | 1.0 | 4.0 | 0.00 | 0.00 | 0.00 | 57 | 1008.8 |
| 20260508010522 | 49 | 1 | 1.0 | 5.0 | 0.00 | 0.00 | 0.00 | 56 | 1008.8 |
| 20260508010053 | 50 | 276 | 3.0 | 8.0 | 0.00 | 0.00 | 0.00 | 57 | 1008.8 |
| 20260508005521 | 50 | 240 | 5.0 | 8.0 | 0.00 | 0.00 | 0.00 | 59 | 1008.7 |
| 20260508005036 | 50 | 252 | 3.0 | 6.0 | 0.00 | 0.00 | 0.00 | 56 | 1008.7 |
| 20260508004524 | 50 | 285 | 3.0 | 6.0 | 0.00 | 0.00 | 0.00 | 54 | 1008.7 |
| 20260508004103 | 50 | 309 | 2.0 | 7.0 | 0.00 | 0.00 | 0.00 | 55 | 1008.7 |
| 20260508003530 | 50 | 248 | 5.0 | 7.0 | 0.00 | 0.00 | 0.00 | 55 | 1008.7 |
| 20260508003025 | 50 | 241 | 4.0 | 5.0 | 0.00 | 0.00 | 0.00 | 53 | 1008.7 |
| 20260508002531 | 50 | 269 | 3.0 | 6.0 | 0.00 | 0.00 | 0.00 | 55 | 1008.7 |
| 20260508002026 | 50 | 223 | 3.0 | 7.0 | 0.00 | 0.00 | 0.00 | 57 | 1008.7 |
| 20260508001536 | 50 | 223 | 4.0 | 7.0 | 0.00 | 0.00 | 0.00 | 56 | 1008.7 |
| 20260508001025 | 50 | 232 | 5.0 | 8.0 | 0.00 | 0.00 | 0.00 | 57 | 1008.7 |
| 20260508000532 | 50 | 240 | 6.0 | 8.0 | 0.00 | 0.00 | 0.00 | 57 | 1008.6 |
| 20260508000048 | 50 | 223 | 5.0 | 7.0 | 0.00 | 0.00 | 0.00 | 55 | 1008.6 |
| 20260507235534 | 50 | 235 | 4.0 | 8.0 | 0.00 | 0.00 | 0.00 | 54 | 1008.6 |
| 20260507235040 | 51 | 237 | 6.0 | 8.0 | 0.00 | 0.00 | 0.00 | 55 | 1008.6 |
| 20260507234528 | 51 | 209 | 6.0 | 7.0 | 0.00 | 0.00 | 0.00 | 56 | 1008.6 |
| 20260507234040 | 51 | 225 | 4.0 | 7.0 | 0.00 | 0.00 | 0.00 | 56 | 1008.7 |
| 20260507233523 | 50 | 234 | 5.0 | 7.0 | 0.00 | 0.00 | 0.00 | 56 | 1008.6 |
| 20260507233034 | 51 | 223 | 5.0 | 7.0 | 0.00 | 0.00 | 0.00 | 56 | 1008.6 |
| 20260507232549 | 50 | 239 | 5.0 | 7.0 | 0.00 | 0.00 | 0.00 | 56 | 1008.6 |
| 20260507232047 | 50 | 243 | 5.0 | 6.0 | 0.00 | 0.00 | 0.00 | 54 | 1008.7 |
| 20260507231532 | 50 | 221 | 3.0 | 7.0 | 0.00 | 0.00 | 0.00 | 54 | 1008.7 |
| 20260507231025 | 51 | 241 | 4.0 | 8.0 | 0.00 | 0.00 | 0.00 | 54 | 1008.7 |
| 20260507230558 | 51 | 229 | 6.0 | 8.0 | 0.00 | 0.00 | 0.00 | 56 | 1008.7 |
| 20260507230027 | 51 | 167 | 4.0 | 5.0 | 0.00 | 0.00 | 0.00 | 56 | 1008.6 |
| 20260507225537 | 50 | 193 | 3.0 | 5.0 | 0.00 | 0.00 | 0.00 | 54 | 1008.7 |
| 20260507225039 | 51 | 226 | 4.0 | 7.0 | 0.00 | 0.00 | 0.00 | 53 | 1008.7 |
| 20260507224523 | 51 | 233 | 5.0 | 7.0 | 0.00 | 0.00 | 0.00 | 53 | 1008.8 |
| 20260507224037 | 51 | 240 | 4.0 | 6.0 | 0.00 | 0.00 | 0.00 | 53 | 1008.8 |
| 20260507223030 | 51 | 227 | 2.0 | 8.0 | 0.00 | 0.00 | 0.00 | 52 | 1008.8 |
| 20260507222538 | 51 | 228 | 5.0 | 8.0 | 0.00 | 0.00 | 0.00 | 52 | 1008.8 |
| 20260507222054 | 51 | 232 | 3.0 | 8.0 | 0.00 | 0.00 | 0.00 | 52 | 1008.8 |
| 20260507221521 | 51 | 240 | 5.0 | 9.0 | 0.00 | 0.00 | 0.00 | 54 | 1008.8 |
| 20260507221033 | 51 | 251 | 7.0 | 9.0 | 0.00 | 0.00 | 0.00 | 57 | 1008.8 |
| 20260507220523 | 51 | 231 | 5.0 | 8.0 | 0.00 | 0.00 | 0.00 | 51 | 1008.9 |
| 20260507220032 | 51 | 179 | 4.0 | 8.0 | 0.00 | 0.00 | 0.00 | 53 | 1008.8 |
| 20260507215540 | 51 | 243 | 6.0 | 8.0 | 0.00 | 0.00 | 0.00 | 53 | 1008.9 |
| 20260507215031 | 52 | 227 | 6.0 | 10.0 | 0.00 | 0.00 | 0.00 | 54 | 1008.9 |
| 20260507214617 | 52 | 245 | 6.0 | 11.0 | 0.00 | 0.00 | 0.00 | 54 | 1008.9 |
| 20260507214058 | 52 | 246 | 8.0 | 12.0 | 0.00 | 0.00 | 0.00 | 56 | 1009.0 |
| 20260507213527 | 52 | 238 | 8.0 | 13.0 | 0.00 | 0.00 | 0.00 | 55 | 1008.9 |
| 20260507213034 | 52 | 233 | 10.0 | 13.0 | 0.00 | 0.00 | 0.00 | 57 | 1008.9 |
| 20260507212534 | 52 | 247 | 11.0 | 12.0 | 0.00 | 0.00 | 0.00 | 57 | 1009.0 |
| 20260507212026 | 52 | 231 | 9.0 | 17.0 | 0.00 | 0.00 | 0.00 | 59 | 1008.9 |
| 20260507211531 | 52 | 241 | 9.0 | 17.0 | 0.00 | 0.00 | 0.00 | 54 | 1008.9 |
| 20260507211024 | 52 | 265 | 10.0 | 14.0 | 0.00 | 0.00 | 0.00 | 54 | 1009.0 |
| 20260507210532 | 52 | 256 | 11.0 | 14.0 | 0.00 | 0.00 | 0.00 | 60 | 1009.0 |
| 20260507210026 | 52 | 256 | 7.0 | 12.0 | 0.00 | 0.00 | 0.00 | 53 | 1009.0 |
| 20260507205531 | 52 | 253 | 8.0 | 15.0 | 0.00 | 0.00 | 0.00 | 52 | 1009.1 |
| 20260507205042 | 52 | 251 | 9.0 | 15.0 | 0.00 | 0.00 | 0.00 | 54 | 1009.1 |
| 20260507204527 | 53 | 242 | 11.0 | 13.0 | 0.00 | 0.00 | 0.00 | 56 | 1009.1 |
| 20260507204041 | 52 | 262 | 8.0 | 14.0 | 0.00 | 0.00 | 0.00 | 57 | 1009.1 |
| 20260507203552 | 51 | 261 | 10.0 | 17.0 | 0.00 | 0.00 | 0.00 | 54 | 1009.1 |
| 20260507203043 | 51 | 265 | 13.0 | 17.0 | 0.00 | 0.00 | 0.00 | 56 | 1009.1 |
| 20260507202533 | 52 | 252 | 13.0 | 16.0 | 0.00 | 0.00 | 0.00 | 57 | 1009.2 |
| 20260507202038 | 52 | 259 | 10.0 | 16.0 | 0.00 | 0.00 | 0.00 | 56 | 1009.2 |
| 20260507201526 | 51 | 247 | 9.0 | 15.0 | 0.00 | 0.00 | 0.00 | 53 | 1009.3 |
| 20260507201035 | 50 | 251 | 10.0 | 16.0 | 0.00 | 0.00 | 0.00 | 58 | 1009.3 |
| 20260507200524 | 50 | 250 | 8.0 | 14.0 | 0.00 | 0.00 | 0.00 | 60 | 1009.3 |
| 20260507200043 | 50 | 250 | 8.0 | 14.0 | 0.00 | 0.00 | 0.00 | 59 | 1009.4 |
| 20260507195532 | 50 | 252 | 11.0 | 14.0 | 0.00 | 0.00 | 0.00 | 59 | 1009.4 |
| 20260507195051 | 50 | 285 | 10.0 | 15.0 | 0.00 | 0.00 | 0.00 | 58 | 1009.4 |
| 20260507194534 | 50 | 264 | 11.0 | 15.0 | 0.00 | 0.00 | 0.00 | 56 | 1009.5 |
| 20260507194025 | 51 | 254 | 12.0 | 17.0 | 0.00 | 0.00 | 0.00 | 60 | 1009.5 |
| 20260507193536 | 51 | 228 | 13.0 | 17.0 | 0.00 | 0.00 | 0.00 | 61 | 1009.5 |
| 20260507193042 | 51 | 239 | 11.0 | 17.0 | 0.00 | 0.00 | 0.00 | 62 | 1009.5 |
| 20260507192541 | 50 | 254 | 14.0 | 17.0 | 0.00 | 0.00 | 0.00 | 62 | 1009.5 |
| 20260507192031 | 50 | 264 | 11.0 | 15.0 | 0.00 | 0.00 | 0.00 | 63 | 1009.6 |
| 20260507191535 | 50 | 257 | 10.0 | 15.0 | 0.00 | 0.00 | 0.00 | 61 | 1009.6 |
| 20260507191036 | 50 | 248 | 12.0 | 15.0 | 0.00 | 0.00 | 0.00 | 59 | 1009.7 |
| 20260507190528 | 50 | 244 | 10.0 | 14.0 | 0.00 | 0.00 | 0.00 | 58 | 1009.6 |
| 20260507190101 | 50 | 261 | 9.0 | 14.0 | 0.00 | 0.00 | 0.00 | 55 | 1009.7 |
| 20260507185525 | 50 | 251 | 12.0 | 15.0 | 0.00 | 0.00 | 0.00 | 58 | 1009.7 |
| 20260507185035 | 50 | 260 | 9.0 | 15.0 | 0.00 | 0.00 | 0.00 | 55 | 1009.7 |
| 20260507184521 | 50 | 248 | 11.0 | 15.0 | 0.00 | 0.00 | 0.00 | 58 | 1009.7 |
| 20260507184034 | 50 | 256 | 12.0 | 15.0 | 0.00 | 0.00 | 0.00 | 58 | 1009.7 |
| 20260507183524 | 50 | 253 | 10.0 | 13.0 | 0.00 | 0.00 | 0.00 | 63 | 1009.7 |
| 20260507183040 | 50 | 234 | 11.0 | 16.0 | 0.00 | 0.00 | 0.00 | 64 | 1009.8 |
| 20260507182524 | 50 | 238 | 11.0 | 16.0 | 0.00 | 0.00 | 0.00 | 63 | 1009.8 |
| 20260507182036 | 50 | 249 | 11.0 | 16.0 | 0.00 | 0.00 | 0.00 | 61 | 1009.8 |
| 20260507181526 | 51 | 249 | 12.0 | 15.0 | 0.00 | 0.00 | 0.00 | 60 | 1009.9 |
| 20260507181058 | 51 | 254 | 10.0 | 15.0 | 0.00 | 0.00 | 0.00 | 57 | 1009.9 |
| 20260507180530 | 51 | 281 | 10.0 | 15.0 | 0.00 | 0.00 | 0.00 | 56 | 1010.0 |
| 20260507180041 | 51 | 248 | 9.0 | 13.0 | 0.00 | 0.00 | 0.00 | 62 | 1009.9 |
| 20260507175532 | 51 | 251 | 10.0 | 14.0 | 0.00 | 0.00 | 0.00 | 60 | 1009.9 |
| 20260507175041 | 51 | 269 | 10.0 | 14.0 | 0.00 | 0.00 | 0.00 | 56 | 1010.0 |
| 20260507174540 | 51 | 247 | 9.0 | 14.0 | 0.00 | 0.00 | 0.00 | 61 | 1010.1 |
| 20260507174056 | 52 | 258 | 10.0 | 15.0 | 0.00 | 0.00 | 0.00 | 60 | 1010.0 |
| 20260507173539 | 53 | 269 | 11.0 | 15.0 | 0.00 | 0.00 | 0.00 | 59 | 1010.0 |
| 20260507172532 | 52 | 244 | 9.0 | 15.0 | 0.00 | 0.00 | 0.00 | 58 | 1010.2 |
| 20260507172038 | 52 | 257 | 10.0 | 15.0 | 0.00 | 0.00 | 0.00 | 63 | 1010.3 |
| 20260507171526 | 51 | 250 | 6.0 | 12.0 | 0.00 | 0.00 | 0.00 | 65 | 1010.3 |
| 20260507171038 | 51 | 251 | 9.0 | 13.0 | 0.00 | 0.00 | 0.00 | 64 | 1010.4 |
| 20260507170544 | 50 | 248 | 7.0 | 11.0 | 0.00 | 0.00 | 0.00 | 65 | 1010.4 |
| 20260507170036 | 50 | 257 | 6.0 | 11.0 | 0.00 | 0.00 | 0.00 | 64 | 1010.5 |
| 20260507165544 | 49 | 256 | 4.0 | 9.0 | 0.00 | 0.00 | 0.00 | 63 | 1010.6 |
| 20260507165057 | 49 | 252 | 6.0 | 8.0 | 0.00 | 0.00 | 0.00 | 66 | 1010.7 |
| 20260507164521 | 49 | 241 | 6.0 | 8.0 | 0.00 | 0.00 | 0.00 | 65 | 1010.7 |
| 20260507164035 | 49 | 244 | 6.0 | 9.0 | 0.00 | 0.00 | 0.00 | 64 | 1010.8 |
| 20260507163526 | 50 | 226 | 6.0 | 9.0 | 0.00 | 0.00 | 0.00 | 63 | 1010.8 |
| 20260507163037 | 51 | 261 | 7.0 | 9.0 | 0.00 | 0.00 | 0.00 | 62 | 1010.8 |
| 20260507162525 | 51 | 238 | 7.0 | 9.0 | 0.00 | 0.00 | 0.00 | 62 | 1010.8 |
| 20260507162027 | 50 | 243 | 5.0 | 8.0 | 0.00 | 0.00 | 0.00 | 61 | 1010.9 |
| 20260507161531 | 50 | 236 | 3.0 | 12.0 | 0.00 | 0.00 | 0.00 | 61 | 1011.0 |
| 20260507161025 | 51 | 256 | 6.0 | 12.0 | 0.00 | 0.00 | 0.00 | 63 | 1011.0 |
| 20260507160559 | 51 | 246 | 8.0 | 12.0 | 0.00 | 0.00 | 0.00 | 64 | 1011.0 |
| 20260507160028 | 50 | 300 | 6.0 | 11.0 | 0.00 | 0.00 | 0.00 | 60 | 1011.0 |
| 20260507155538 | 50 | 261 | 8.0 | 11.0 | 0.00 | 0.00 | 0.00 | 63 | 1011.1 |
| 20260507155057 | 49 | 252 | 4.0 | 12.0 | 0.00 | 0.00 | 0.00 | 61 | 1011.1 |
| 20260507154556 | 49 | 245 | 7.0 | 10.0 | 0.00 | 0.00 | 0.00 | 67 | 1011.1 |
| 20260507154026 | 48 | 223 | 2.0 | 9.0 | 0.00 | 0.00 | 0.00 | 67 | 1011.1 |
| 20260507153536 | 48 | 258 | 5.0 | 9.0 | 0.00 | 0.00 | 0.00 | 68 | 1011.2 |
| 20260507153024 | 47 | 35 | 2.0 | 5.0 | 0.00 | 0.00 | 0.00 | 66 | 1011.1 |
| 20260507152532 | 47 | 296 | 3.0 | 6.0 | 0.00 | 0.00 | 0.00 | 66 | 1011.1 |
| 20260507152027 | 48 | 307 | 4.0 | 9.0 | 0.00 | 0.00 | 0.00 | 65 | 1011.1 |
| 20260507151534 | 47 | 245 | 6.0 | 9.0 | 0.00 | 0.00 | 0.00 | 66 | 1011.1 |
| 20260507151031 | 47 | 250 | 4.0 | 9.0 | 0.00 | 0.00 | 0.00 | 66 | 1011.1 |
| 20260507150539 | 47 | 250 | 5.0 | 6.0 | 0.00 | 0.00 | 0.00 | 67 | 1011.1 |
| 20260507150029 | 47 | 1 | 3.0 | 5.0 | 0.00 | 0.00 | 0.00 | 64 | 1011.1 |
| 20260507145600 | 47 | 344 | 2.0 | 7.0 | 0.00 | 0.00 | 0.00 | 64 | 1011.0 |
| 20260507145027 | 48 | 351 | 3.0 | 7.0 | 0.00 | 0.00 | 0.00 | 63 | 1011.0 |
| 20260507144535 | 48 | 20 | 4.0 | 8.0 | 0.00 | 0.00 | 0.00 | 65 | 1010.9 |
| 20260507144023 | 47 | 351 | 3.0 | 5.0 | 0.00 | 0.00 | 0.00 | 67 | 1011.0 |
| 20260507143532 | 46 | 317 | 3.0 | 6.0 | 0.00 | 0.00 | 0.00 | 64 | 1011.0 |
| 20260507143025 | 47 | 262 | 2.0 | 6.0 | 0.00 | 0.00 | 0.00 | 66 | 1011.1 |
| 20260507142534 | 47 | 179 | 2.0 | 7.0 | 0.00 | 0.00 | 0.00 | 65 | 1011.0 |
| 20260507142042 | 47 | 295 | 4.0 | 7.0 | 0.00 | 0.00 | 0.00 | 64 | 1011.0 |
| 20260507141531 | 48 | 13 | 3.0 | 7.0 | 0.00 | 0.00 | 0.00 | 63 | 1011.0 |
| 20260507141042 | 48 | 11 | 4.0 | 7.0 | 0.00 | 0.00 | 0.00 | 64 | 1010.9 |
| 20260507140545 | 47 | 299 | 3.0 | 5.0 | 0.00 | 0.00 | 0.00 | 67 | 1011.0 |
| 20260507140039 | 47 | 28 | 2.0 | 4.0 | 0.00 | 0.00 | 0.00 | 64 | 1011.0 |
| 20260507135547 | 47 | 223 | 2.0 | 6.0 | 0.00 | 0.00 | 0.00 | 65 | 1011.0 |
| 20260507135036 | 47 | 290 | 3.0 | 6.0 | 0.00 | 0.00 | 0.00 | 64 | 1011.0 |
| 20260507134541 | 46 | 250 | 1.0 | 3.0 | 0.00 | 0.00 | 0.00 | 65 | 1011.1 |
| 20260507134042 | 46 | 190 | 1.0 | 4.0 | 0.00 | 0.00 | 0.00 | 67 | 1011.1 |
| 20260507133530 | 45 | 175 | 2.0 | 5.0 | 0.00 | 0.00 | 0.00 | 67 | 1011.1 |
| 20260507133035 | 45 | 186 | 3.0 | 5.0 | 0.00 | 0.00 | 0.00 | 68 | 1011.0 |
| 20260507132544 | 45 | 151 | 4.0 | 5.0 | 0.00 | 0.00 | 0.00 | 68 | 1011.1 |
| 20260507132036 | 46 | 157 | 3.0 | 6.0 | 0.00 | 0.00 | 0.00 | 70 | 1011.1 |
| 20260507131523 | 45 | 137 | 4.0 | 6.0 | 0.00 | 0.00 | 0.00 | 69 | 1011.1 |
| 20260507131032 | 45 | 127 | 4.0 | 5.0 | 0.00 | 0.00 | 0.00 | 69 | 1011.0 |
| 20260507130540 | 45 | 135 | 3.0 | 5.0 | 0.00 | 0.00 | 0.00 | 70 | 1011.1 |
| 20260507130032 | 44 | 170 | 4.0 | 5.0 | 0.00 | 0.00 | 0.00 | 70 | 1011.1 |
| 20260507125551 | 44 | 79 | 3.0 | 4.0 | 0.00 | 0.00 | 0.00 | 70 | 1011.1 |
| 20260507125042 | 44 | 165 | 3.0 | 4.0 | 0.00 | 0.00 | 0.00 | 69 | 1011.1 |
| 20260507124531 | 44 | 107 | 3.0 | 7.0 | 0.00 | 0.00 | 0.00 | 71 | 1011.0 |
| 20260507124024 | 44 | 110 | 4.0 | 7.0 | 0.00 | 0.00 | 0.00 | 72 | 1011.0 |
| 20260507123533 | 43 | 127 | 4.0 | 6.0 | 0.00 | 0.00 | 0.00 | 71 | 1011.1 |
| 20260507123028 | 43 | 157 | 3.0 | 7.0 | 0.00 | 0.00 | 0.00 | 71 | 1011.1 |
| 20260507122536 | 43 | 148 | 5.0 | 8.0 | 0.00 | 0.00 | 0.00 | 72 | 1011.1 |
| 20260507122023 | 43 | 155 | 6.0 | 8.0 | 0.00 | 0.00 | 0.00 | 72 | 1011.0 |
| 20260507121534 | 43 | 144 | 5.0 | 6.0 | 0.00 | 0.00 | 0.00 | 72 | 1011.0 |
| 20260507121046 | 43 | 121 | 4.0 | 6.0 | 0.00 | 0.00 | 0.00 | 72 | 1011.1 |
| 20260507120529 | 43 | 119 | 5.0 | 8.0 | 0.00 | 0.00 | 0.00 | 70 | 1011.1 |
| 20260507120042 | 43 | 113 | 6.0 | 8.0 | 0.00 | 0.00 | 0.00 | 71 | 1011.2 |
| 20260507115530 | 43 | 127 | 6.0 | 8.0 | 0.00 | 0.00 | 0.00 | 71 | 1011.0 |
| 20260507115023 | 42 | 140 | 6.0 | 8.0 | 0.00 | 0.00 | 0.00 | 71 | 1011.0 |
| 20260507114526 | 42 | 126 | 6.0 | 9.0 | 0.00 | 0.00 | 0.00 | 71 | 1011.0 |
| 20260507114036 | 42 | 126 | 6.0 | 9.0 | 0.00 | 0.00 | 0.00 | 71 | 1010.9 |
| 20260507113542 | 42 | 122 | 6.0 | 8.0 | 0.00 | 0.00 | 0.00 | 71 | 1010.9 |
| 20260507113025 | 42 | 103 | 6.0 | 8.0 | 0.00 | 0.00 | 0.00 | 71 | 1010.9 |
| 20260507112534 | 42 | 110 | 5.0 | 7.0 | 0.00 | 0.00 | 0.00 | 71 | 1010.8 |
| 20260507112025 | 41 | 129 | 6.0 | 9.0 | 0.00 | 0.00 | 0.00 | 72 | 1010.9 |
| 20260507111536 | 41 | 108 | 7.0 | 9.0 | 0.00 | 0.00 | 0.00 | 72 | 1010.8 |
| 20260507111026 | 41 | 98 | 6.0 | 7.0 | 0.00 | 0.00 | 0.00 | 71 | 1010.8 |
| 20260507110531 | 41 | 122 | 5.0 | 7.0 | 0.00 | 0.00 | 0.00 | 69 | 1010.7 |
| 20260507110042 | 41 | 115 | 3.0 | 6.0 | 0.00 | 0.00 | 0.00 | 68 | 1010.6 |
| 20260507105529 | 41 | 94 | 3.0 | 6.0 | 0.00 | 0.00 | 0.00 | 68 | 1010.6 |
| 20260507105039 | 41 | 75 | 3.0 | 6.0 | 0.00 | 0.00 | 0.00 | 68 | 1010.6 |
| 20260507104526 | 41 | 96 | 4.0 | 5.0 | 0.00 | 0.00 | 0.00 | 68 | 1010.6 |
| 20260507104036 | 41 | 81 | 3.0 | 6.0 | 0.00 | 0.00 | 0.00 | 69 | 1010.5 |
| 20260507103541 | 41 | 63 | 2.0 | 6.0 | 0.00 | 0.00 | 0.00 | 69 | 1010.5 |
| 20260507103033 | 41 | 49 | 3.0 | 6.0 | 0.00 | 0.00 | 0.00 | 69 | 1010.5 |
| 20260507102522 | 41 | 84 | 4.0 | 6.0 | 0.00 | 0.00 | 0.00 | 68 | 1010.6 |
| 20260507102043 | 41 | 59 | 2.0 | 6.0 | 0.00 | 0.00 | 0.00 | 68 | 1010.6 |
| 20260507101531 | 40 | 96 | 5.0 | 6.0 | 0.00 | 0.00 | 0.00 | 68 | 1010.6 |
| 20260507101023 | 40 | 66 | 4.0 | 5.0 | 0.00 | 0.00 | 0.00 | 67 | 1010.7 |
| 20260507100531 | 40 | 79 | 3.0 | 5.0 | 0.00 | 0.00 | 0.00 | 68 | 1010.7 |
| 20260507100025 | 40 | 98 | 3.0 | 5.0 | 0.00 | 0.00 | 0.00 | 68 | 1010.7 |
| 20260507095529 | 40 | 105 | 4.0 | 5.0 | 0.00 | 0.00 | 0.00 | 68 | 1010.7 |
| 20260507095055 | 40 | 68 | 3.0 | 5.0 | 0.00 | 0.00 | 0.00 | 68 | 1010.8 |
| 20260507094525 | 40 | 63 | 2.0 | 5.0 | 0.00 | 0.00 | 0.00 | 69 | 1010.7 |
| 20260507094035 | 40 | 89 | 3.0 | 5.0 | 0.00 | 0.00 | 0.00 | 69 | 1010.8 |
| 20260507093549 | 40 | 105 | 3.0 | 4.0 | 0.00 | 0.00 | 0.00 | 69 | 1010.7 |
| 20260507093041 | 40 | 96 | 3.0 | 5.0 | 0.00 | 0.00 | 0.00 | 69 | 1010.8 |
| 20260507092525 | 40 | 98 | 3.0 | 4.0 | 0.00 | 0.00 | 0.00 | 69 | 1010.7 |
| 20260507092040 | 40 | 98 | 3.0 | 4.0 | 0.00 | 0.00 | 0.00 | 69 | 1010.7 |
| 20260507091528 | 40 | 105 | 2.0 | 4.0 | 0.00 | 0.00 | 0.00 | 69 | 1010.8 |
| 20260507091041 | 40 | 83 | 2.0 | 4.0 | 0.00 | 0.00 | 0.00 | 69 | 1010.8 |
| 20260507090524 | 40 | 84 | 3.0 | 4.0 | 0.00 | 0.00 | 0.00 | 69 | 1010.9 |
| 20260507085531 | 40 | 89 | 2.0 | 4.0 | 0.00 | 0.00 | 0.00 | 69 | 1010.7 |
| 20260507085040 | 40 | 79 | 2.0 | 4.0 | 0.00 | 0.00 | 0.00 | 68 | 1010.8 |
| 20260507084529 | 40 | 89 | 3.0 | 4.0 | 0.00 | 0.00 | 0.00 | 68 | 1010.8 |
| 20260507084042 | 40 | 114 | 2.0 | 4.0 | 0.00 | 0.00 | 0.00 | 67 | 1010.9 |
| 20260507083528 | 40 | 89 | 2.0 | 4.0 | 0.00 | 0.00 | 0.00 | 68 | 1010.8 |
| 20260507083035 | 40 | 100 | 1.0 | 3.0 | 0.00 | 0.00 | 0.00 | 68 | 1010.8 |
| 20260507082523 | 40 | 79 | 2.0 | 3.0 | 0.00 | 0.00 | 0.00 | 68 | 1010.8 |
| 20260507082034 | 39 | 68 | 2.0 | 3.0 | 0.00 | 0.00 | 0.00 | 68 | 1010.9 |
| 20260507081523 | 39 | 108 | 2.0 | 2.0 | 0.00 | 0.00 | 0.00 | 68 | 1011.0 |
| 20260507081116 | 40 | 72 | 1.0 | 3.0 | 0.00 | 0.00 | 0.00 | 68 | 1010.9 |
| 20260507080527 | 40 | 40 | 2.0 | 3.0 | 0.00 | 0.00 | 0.00 | 68 | 1010.9 |
| 20260507080036 | 40 | 28 | 1.0 | 2.0 | 0.00 | 0.00 | 0.00 | 69 | 1011.0 |
| 20260507075524 | 40 | 56 | 1.0 | 3.0 | 0.00 | 0.00 | 0.00 | 69 | 1010.9 |
| 20260507075039 | 40 | 51 | 2.0 | 3.0 | 0.00 | 0.00 | 0.00 | 68 | 1010.9 |
| 20260507074528 | 40 | 35 | 1.0 | 3.0 | 0.00 | 0.00 | 0.00 | 68 | 1010.8 |
| 20260507074037 | 40 | 40 | 2.0 | 3.0 | 0.00 | 0.00 | 0.00 | 68 | 1010.8 |
| 20260507073547 | 40 | 39 | 1.0 | 3.0 | 0.00 | 0.00 | 0.00 | 68 | 1010.8 |
| 20260507073102 | 40 | 32 | 1.0 | 5.0 | 0.00 | 0.00 | 0.00 | 69 | 1010.8 |
| 20260507072524 | 40 | 59 | 3.0 | 5.0 | 0.00 | 0.00 | 0.00 | 69 | 1010.7 |
| 20260507072036 | 40 | 23 | 1.0 | 6.0 | 0.00 | 0.00 | 0.00 | 68 | 1010.7 |
| 20260507071524 | 40 | 23 | 1.0 | 6.0 | 0.00 | 0.00 | 0.00 | 68 | 1010.8 |
| 20260507071036 | 40 | 89 | 3.0 | 5.0 | 0.00 | 0.00 | 0.00 | 68 | 1010.8 |
| 20260507070540 | 40 | 39 | 2.0 | 5.0 | 0.00 | 0.00 | 0.00 | 68 | 1010.8 |
| 20260507070024 | 40 | 56 | 2.0 | 7.0 | 0.00 | 0.00 | 0.00 | 68 | 1010.8 |
| 20260507065530 | 40 | 96 | 3.0 | 7.0 | 0.00 | 0.00 | 0.00 | 68 | 1010.9 |
| 20260507065039 | 40 | 39 | 2.0 | 6.0 | 0.00 | 0.00 | 0.00 | 68 | 1010.8 |
| 20260507064555 | 40 | 74 | 3.0 | 7.0 | 0.00 | 0.00 | 0.00 | 68 | 1010.8 |
| 20260507064032 | 40 | 84 | 4.0 | 7.0 | 0.00 | 0.00 | 0.00 | 68 | 1010.8 |
| 20260507063538 | 40 | 89 | 4.0 | 7.0 | 0.00 | 0.00 | 0.00 | 67 | 1010.9 |
| 20260507063031 | 40 | 81 | 4.0 | 7.0 | 0.00 | 0.00 | 0.00 | 66 | 1010.9 |
| 20260507062539 | 40 | 101 | 4.0 | 6.0 | 0.00 | 0.00 | 0.00 | 66 | 1011.0 |
| 20260507062026 | 40 | 79 | 3.0 | 7.0 | 0.00 | 0.00 | 0.00 | 66 | 1011.0 |
| 20260507061532 | 40 | 74 | 3.0 | 7.0 | 0.00 | 0.00 | 0.00 | 66 | 1011.1 |
| 20260507061043 | 40 | 96 | 4.0 | 8.0 | 0.00 | 0.00 | 0.00 | 66 | 1011.1 |
| 20260507060531 | 41 | 66 | 5.0 | 8.0 | 0.00 | 0.00 | 0.00 | 66 | 1011.2 |
| 20260507060037 | 41 | 77 | 4.0 | 7.0 | 0.00 | 0.00 | 0.00 | 66 | 1011.3 |
| 20260507055547 | 41 | 79 | 4.0 | 7.0 | 0.00 | 0.00 | 0.00 | 67 | 1011.2 |
| 20260507055039 | 41 | 79 | 4.0 | 7.0 | 0.00 | 0.00 | 0.00 | 67 | 1011.2 |
| 20260507054523 | 41 | 71 | 3.0 | 7.0 | 0.00 | 0.00 | 0.00 | 68 | 1011.2 |
| 20260507054047 | 41 | 100 | 5.0 | 7.0 | 0.00 | 0.00 | 0.00 | 67 | 1011.3 |
| 20260507053536 | 41 | 72 | 2.0 | 5.0 | 0.00 | 0.00 | 0.00 | 68 | 1011.3 |
| 20260507053027 | 41 | 63 | 1.0 | 8.0 | 0.00 | 0.00 | 0.00 | 68 | 1011.3 |
| 20260507052531 | 41 | 86 | 3.0 | 8.0 | 0.00 | 0.00 | 0.00 | 68 | 1011.3 |
| 20260507052043 | 41 | 76 | 4.0 | 8.0 | 0.00 | 0.00 | 0.00 | 68 | 1011.3 |
| 20260507051556 | 41 | 77 | 5.0 | 8.0 | 0.00 | 0.00 | 0.00 | 68 | 1011.4 |
| 20260507051042 | 41 | 82 | 4.0 | 8.0 | 0.00 | 0.00 | 0.00 | 68 | 1011.4 |
| 20260507050557 | 41 | 89 | 3.0 | 8.0 | 0.00 | 0.00 | 0.00 | 68 | 1011.4 |